This is the latest recevied weather packets stored in our database for station/object K6GMW. If no packets are shown the sender has not sent any weather packets the latest 10 day(s).
| Time | Temp. | Humidity | Pressure | Rain* | Wind** | Luminosity | Snow |
|---|---|---|---|---|---|---|---|
| 1788299372 | 37.22° C | 38% | 1014.7 hPa | 0 mm | - | 441 W/m² | - |
| 1788299072 | 37.78° C | 37% | 1015.1 hPa | 0 mm | - | 81 W/m² | - |
| 1788298772 | 37.78° C | 37% | 1015.2 hPa | 0 mm | - | 497 W/m² | - |
| 1788298466 | 37.22° C | 38% | 1015.3 hPa | 0 mm | - | 514 W/m² | - |
| 1788298165 | 37.22° C | 38% | 1015.1 hPa | 0 mm | - | 524 W/m² | - |
| 1788297861 | 37.78° C | 37% | 1015.1 hPa | 0 mm | - | 556 W/m² | - |
| 1788297558 | 36.67° C | 39% | 1015.5 hPa | 0 mm | - | 589 W/m² | - |
| 1788297253 | 36.67° C | 38% | 1015.4 hPa | 0 mm | - | 82 W/m² | - |
| 1788296948 | 37.78° C | 38% | 1015.4 hPa | 0 mm | - | 652 W/m² | - |
| 1788296665 | 38.33° C | 37% | 1015.3 hPa | 0 mm | - | 673 W/m² | - |
| 1788296341 | 37.78° C | 39% | 1015.4 hPa | 0 mm | - | 706 W/m² | - |
| 1788296041 | 37.78° C | 39% | 1015.6 hPa | 0 mm | - | 702 W/m² | - |
| 1788295736 | 37.22° C | 40% | 1015.4 hPa | 0 mm | - | 690 W/m² | - |
| 1788295433 | 36.67° C | 41% | 1015.5 hPa | 0 mm | - | 730 W/m² | - |
| 1788295132 | 37.22° C | 40% | 1015.8 hPa | 0 mm | - | 125 W/m² | - |
| 1788294826 | 37.78° C | 41% | 1015.7 hPa | 0 mm | - | 775 W/m² | - |
| 1788294521 | 37.22° C | 41% | 1015.7 hPa | 0 mm | - | 819 W/m² | - |
| 1788294216 | 37.22° C | 41% | 1016 hPa | 0 mm | - | 800 W/m² | - |
| 1788293913 | 36.11° C | 44% | 1015.9 hPa | 0 mm | - | 803 W/m² | - |
| 1788293613 | 36.67° C | 42% | 1016.2 hPa | 0 mm | - | 188 W/m² | - |
| 1788293311 | 37.78° C | 40% | 1016.1 hPa | 0 mm | - | 898 W/m² | - |
| 1788293007 | 37.22° C | 42% | 1016 hPa | 0 mm | - | 883 W/m² | - |
| 1788292706 | 37.22° C | 42% | 1015.9 hPa | 0 mm | - | 909 W/m² | - |
| 1788292399 | 36.11° C | 45% | 1016.2 hPa | 0 mm | - | 989 W/m² | - |
| 1788292095 | 36.67° C | 43% | 1016.3 hPa | 0 mm | - | 239 W/m² | - |
* Rain latest hour (hover to see other rain measurements)
** Current wind speed in m/s (hover to see current wind gust speed)